This demonstration page uses our WeatherBlox Daily Observations layout. Learn more.

Hourly Observations for November 30, 2017

Temp ( °F °C ) Dew Point ( °F °C ) Humidity (%) Winds ( mph kmh ) Pressure ( in mb ) Visibility ( mi km ) Precip ( " mm )
12:15 am 00:15 Clear 37 2.7 23 -5.2 56 56 NNW 14 22 30.36 1028 10 16.0934 0 0
12:35 am 00:35 Clear 38 3.2 23 -5.2 54 54 N 13 20 30.33 1027 10 16.0934 0 0
12:55 am 00:55 Clear 38 3.3 22 -5.5 53 53 N 14 22 30.33 1027 10 16.0934 0 0
1:15 am 01:15 Clear 37 3 22 -5.5 54 54 N 12 19 30.33 1027 10 16.0934 0 0
1:35 am 01:35 Clear 37 2.8 22 -5.5 55 55 N 12 19 30.36 1028 10 16.0934 0 0
1:55 am 01:55 Clear 37 2.8 22 -5.5 55 55 N 12 19 30.36 1028 10 16.0934 0 0
2:15 am 02:15 Clear 38 3.6 22 -5.5 52 52 N 12 19 30.33 1027 10 16.0934 0 0
2:35 am 02:35 Clear 37 3 22 -5.8 53 53 N 9 15 30.33 1027 10 16.0934 0 0
2:55 am 02:55 Clear 37 2.5 22 -5.6 56 56 N 9 15 30.39 1029 10 16.0934 0 0
3:15 am 03:15 Clear 36 2.1 22 -5.6 57 57 Calm 30.39 1029 10 16.0934 0 0
3:35 am 03:35 Clear 34 1.3 21 -6.2 58 58 W 5 7 30.39 1029 10 16.0934 0 0
3:55 am 03:55 Clear 32 -0.2 22 -5.8 66 66 WNW 6 9 30.42 1030 10 16.0934 0 0
4:15 am 04:15 Clear 31 -0.7 22 -5.5 70 70 W 5 7 30.42 1030 10 16.0934 0 0
4:35 am 04:35 Clear 30 -1 22 -5.8 70 70 W 7 11 30.42 1030 10 16.0934 0 0
4:55 am 04:55 Clear 28 -2 21 -6.1 74 74 W 7 11 30.45 1031 10 16.0934 0 0
5:15 am 05:15 Clear 30 -0.9 22 -5.3 72 72 W 8 13 30.45 1031 10 16.0934 0 0
5:35 am 05:35 Clear 31 -0.4 22 -5.5 69 69 W 12 19 30.45 1031 10 16.0934 0 0
5:55 am 05:55 Clear 30 -1 21 -6 69 69 WNW 8 13 30.45 1031 10 16.0934 0 0
6:15 am 06:15 Clear 27 -2.7 20 -6.5 75 75 NW 8 13 30.48 1032 10 16.0934 0 0
6:35 am 06:35 Clear 25 -3.7 20 -6.8 79 79 WNW 6 9 30.5 1033 10 16.0934 0 0
6:55 am 06:55 Clear 24 -4.4 19 -7.3 80 80 NNW 6 9 30.48 1032 10 16.0934 0 0
7:15 am 07:15 Clear 24 -4.4 19 -7 82 82 NW 8 13 30.5 1033 10 16.0934 0 0
7:35 am 07:35 Clear 24 -4.6 19 -7.2 82 82 WNW 7 11 30.5 1033 10 16.0934 0 0
7:55 am 07:55 Sunny 23 -5.1 18 -7.6 83 83 WNW 3 6 30.53 1034 10 16.0934 0 0
8:15 am 08:15 Sunny 23 -4.8 19 -7.5 82 82 W 6 9 30.5 1033 10 16.0934 0 0
8:35 am 08:35 Sunny 24 -4.7 19 -7.3 82 82 WNW 5 7 30.5 1033 10 16.0934 0 0
8:55 am 08:55 Sunny 27 -2.8 21 -6.2 78 78 WNW 6 9 30.5 1033 10 16.0934 0 0
9:15 am 09:15 Sunny 30 -1 21 -6 69 69 W 7 11 30.48 1032 10 16.0934 0 0
9:35 am 09:35 Sunny 32 0.2 22 -5.4 66 66 W 3 6 30.48 1032 10 16.0934 0 0
9:55 am 09:55 Sunny 35 1.9 23 -4.9 61 61 Calm 30.45 1031 10 16.0934 0 0
10:15 am 10:15 Sunny 38 3.2 23 -4.9 56 56 NW 5 7 30.45 1031 10 16.0934 0 0
10:35 am 10:35 Sunny 40 4.7 23 -5 50 50 WNW 6 9 30.42 1030 10 16.0934 0 0
10:55 am 10:55 Sunny 43 6.2 23 -5 45 45 W 5 7 30.42 1030 10 16.0934 0 0
11:15 am 11:15 Sunny 46 7.5 23 -5.1 41 41 W 5 7 30.39 1029 10 16.0934 0 0
11:35 am 11:35 Sunny 47 8.2 23 -4.9 39 39 WNW 6 9 30.36 1028 10 16.0934 0 0
11:55 am 11:55 Sunny 49 9.5 22 -5.5 35 35 WNW 3 6 30.36 1028 10 16.0934 0 0
12:15 pm 12:15 Sunny 51 10.5 19 -7.2 28 28 WSW 7 11 30.3 1026 10 16.0934 0 0
12:35 pm 12:35 Sunny 51 10.7 19 -7.5 27 27 WSW 6 9 30.3 1026 10 16.0934 0 0
12:55 pm 12:55 Sunny 52 11 18 -7.8 26 26 SW 9 15 30.27 1025 10 16.0934 0 0
1:15 pm 13:15 Sunny 52 11.3 18 -7.7 26 26 SSW 12 19 30.27 1025 10 16.0934 0 0
1:35 pm 13:35 Sunny 52 11.3 18 -7.9 25 25 SW 7 11 30.24 1024 10 16.0934 0 0
1:55 pm 13:55 Sunny 53 11.6 18 -8 25 25 SSW 13 20 30.24 1024 10 16.0934 0 0
2:15 pm 14:15 Sunny 53 11.7 18 -8 25 25 SSW 12 19 30.24 1024 10 16.0934 0 0
2:35 pm 14:35 Sunny 53 11.6 18 -7.9 25 25 SSW 10 17 30.21 1023 10 16.0934 0 0
2:55 pm 14:55 Sunny 53 11.9 17 -8.3 24 24 SSW 14 22 30.18 1022 10 16.0934 0 0
3:15 pm 15:15 Sunny 53 11.6 17 -8.5 24 24 SSW 15 24 30.15 1021 10 16.0934 0 0
3:35 pm 15:35 Sunny 53 11.5 18 -7.9 25 25 S 13 20 30.15 1021 10 16.0934 0 0
3:55 pm 15:55 Sunny 52 11.3 18 -7.8 26 26 S 10 17 30.18 1022 10 16.0934 0 0
4:15 pm 16:15 Sunny 52 11 17 -8.2 25 25 S 12 19 30.18 1022 10 16.0934 0 0
4:35 pm 16:35 Sunny 51 10.3 18 -8 27 27 S 10 17 30.15 1021 10 16.0934 0 0
4:55 pm 16:55 Sunny 48 8.8 18 -7.7 31 31 S 7 11 30.15 1021 10 16.0934 0 0
5:15 pm 17:15 Clear 45 7.2 17 -8.2 33 33 SSE 6 9 30.18 1022 10 16.0934 0 0
5:35 pm 17:35 Clear 44 6.9 17 -8.5 33 33 SSE 7 11 30.18 1022 10 16.0934 0 0
6:15 pm 18:15 Clear 39 4.1 17 -8.1 41 41 SSE 9 15 30.21 1023 10 16.0934 0 0
6:35 pm 18:35 Clear 38 3.3 17 -8.1 43 43 SSE 9 15 30.21 1023 10 16.0934 0 0
6:55 pm 18:55 Clear 38 3.3 17 -8.4 42 42 SSE 9 15 30.21 1023 10 16.0934 0 0
7:15 pm 19:15 Clear 36 2.2 18 -7.8 48 48 SSE 9 15 30.21 1023 10 16.0934 0 0
7:35 pm 19:35 Clear 36 2.1 18 -7.6 49 49 SSE 9 15 30.21 1023 10 16.0934 0 0
7:55 pm 19:55 Clear 36 2.2 18 -7.6 49 49 SSE 9 15 30.21 1023 10 16.0934 0 0
8:15 pm 20:15 Clear 35 1.8 18 -7.6 50 50 SSE 9 15 30.24 1024 10 16.0934 0 0
8:35 pm 20:35 Clear 36 2.3 19 -7.3 49 49 S 10 17 30.21 1023 10 16.0934 0 0
8:55 pm 20:55 Clear 38 3.3 19 -7.4 46 46 S 12 19 30.18 1022 10 16.0934 0 0
9:15 pm 21:15 Clear 39 3.8 19 -7.2 45 45 S 10 17 30.18 1022 10 16.0934 0 0
9:35 pm 21:35 Clear 37 2.6 20 -6.8 50 50 S 8 13 30.18 1022 10 16.0934 0 0
9:55 pm 21:55 Clear 37 2.6 20 -6.7 51 51 S 8 13 30.18 1022 10 16.0934 0 0
10:15 pm 22:15 Clear 37 2.6 20 -6.4 52 52 S 9 15 30.18 1022 10 16.0934 0 0
10:35 pm 22:35 Clear 37 2.6 21 -6.2 53 53 S 7 11 30.18 1022 10 16.0934 0 0
10:55 pm 22:55 Clear 38 3.2 21 -6.3 50 50 S 7 11 30.18 1022 10 16.0934 0 0
11:15 pm 23:15 Clear 39 3.8 22 -5.8 50 50 SSW 10 17 30.18 1022 10 16.0934 0 0
11:35 pm 23:35 Clear 40 4.7 21 -6.1 46 46 SSW 9 15 30.15 1021 10 16.0934 0 0
11:55 pm 23:55 Clear 38 3.4 21 -6.1 50 50 SSW 7 11 30.18 1022 10 16.0934 0 0

Powered by AerisWeather